Change the Weather History Date:

Monday, June 3, 2013

  Actual Average (KNEW) Record (KNEW)
Temperature  
Mean Temperature 80 °F 80 °F  
Max Temperature 91 °F 88 °F 95 °F (2011)
Min Temperature 70 °F 72 °F 55 °F (1984)
Degree Days  
Heating Degree Days 0 0  
Month to date heating degree days 0  
Since 1 June heating degree days 0  
Since 1 July heating degree days 1280  
Cooling Degree Days 15 15  
Month to date cooling degree days 45  
Year to date cooling degree days 664  
Since 1 June cooling degree days 45  
Growing Degree Days 30 (Base 50)    
Moisture  
Dew Point 73 °F    
Average Humidity 80    
Maximum Humidity 100    
Minimum Humidity 54    
Precipitation  
Precipitation 0.00 in 0.24 in 2.71 in (2003)
Month to date precipitation 0.72  
Year to date precipitation 24.96  
Snow  
Snow 0.00 in - - ()
Month to date snowfall  
Since 1 June snowfall  
Since 1 July snowfall  
Snow Depth -    
Sea Level Pressure  
Sea Level Pressure 29.89 in    
Wind  
Wind Speed 2 mph (East)    
Max Wind Speed 7 mph    
Max Gust Speed -    
Visibility 10 miles    
Events Thunderstorm    
T = Trace of Precipitation, MM = Missing Value Source: NWS Daily Summary

Daily Weather History Graph

Daily Weather History Graph

Search for Another Location

Airport or City:

Trip Planner

Search our weather history database for the weather conditions in past years. The results will help you decide how hot, cold, wet, or windy it might be!

Date:

Astronomy

Jun. 03, 2013 Rise Set
Actual Time 5:57 AM CDT 7:57 PM CDT
Civil Twilight 5:30 AM CDT 8:25 PM CDT
Nautical Twilight 4:57 AM CDT 8:58 PM CDT
Astronomical Twilight 4:21 AM CDT 9:33 PM CDT
Moon 2:37 AM CDT (6/3) 3:43 PM CDT (6/3)
Length of Visible Light 14h 54m
Length of Day
14h 00m
Waning Crescent, 22% of the Moon is Illuminated
Jun 3
Waning Crescent
Jun 8
New
Jun 16
First Quarter
Jun 23
Full
Jun 29
Last Quarter

Hourly Weather History & Observations

Time (CDT) Temp. Heat Index Dew Point Humidity Pressure Visibility Wind Dir Wind Speed Gust Speed Precip Events Conditions
12:53 AM 75.0 °F - 73.0 °F 94% 29.91 in 10.0 mi Calm Calm - N/A   Mostly Cloudy
1:53 AM 73.0 °F - 71.1 °F 93% 29.89 in 10.0 mi Calm Calm - N/A   Clear
2:53 AM 71.1 °F - 70.0 °F 96% 29.88 in 10.0 mi North 3.5 mph - N/A   Clear
3:53 AM 71.1 °F - 70.0 °F 96% 29.88 in 10.0 mi Calm Calm - N/A   Clear
4:53 AM 70.0 °F - 70.0 °F 100% 29.89 in 10.0 mi Calm Calm - N/A   Clear
5:53 AM 70.0 °F - 69.1 °F 97% 29.90 in 10.0 mi Calm Calm - N/A   Partly Cloudy
6:53 AM 72.0 °F - 71.1 °F 97% 29.93 in 10.0 mi Calm Calm - N/A   Overcast
7:53 AM 77.0 °F - 73.0 °F 88% 29.93 in 10.0 mi NNE 4.6 mph - N/A   Mostly Cloudy
8:53 AM 81.0 °F 86.2 °F 73.9 °F 79% 29.93 in 10.0 mi Calm Calm - N/A   Clear
9:42 AM 82.4 °F 88.2 °F 73.4 °F 74% 29.93 in 10.0 mi NE 3.5 mph - N/A   Mostly Cloudy
9:53 AM 82.9 °F 88.8 °F 73.0 °F 72% 29.93 in 10.0 mi Calm Calm - N/A   Overcast
10:53 AM 84.9 °F 91.4 °F 73.0 °F 67% 29.92 in 10.0 mi East 3.5 mph - N/A   Mostly Cloudy
11:53 AM 86.0 °F 93.0 °F 73.0 °F 65% 29.91 in 10.0 mi WNW 3.5 mph - N/A   Overcast
12:53 PM 84.9 °F 91.4 °F 73.0 °F 67% 29.90 in 10.0 mi SE 3.5 mph - N/A   Mostly Cloudy
1:53 PM 90.0 °F 97.9 °F 73.0 °F 57% 29.88 in 10.0 mi NNE 4.6 mph - N/A   Scattered Clouds
2:53 PM 88.0 °F 95.6 °F 73.0 °F 61% 29.87 in 10.0 mi SE 4.6 mph - N/A   Mostly Cloudy
3:53 PM 87.1 °F 95.4 °F 73.9 °F 65% 29.85 in 10.0 mi Variable 4.6 mph - N/A   Overcast
4:53 PM 90.0 °F 96.4 °F 71.1 °F 54% 29.83 in 10.0 mi Calm Calm - N/A   Clear
5:53 PM 88.0 °F 94.7 °F 72.0 °F 59% 29.83 in 10.0 mi SE 6.9 mph - N/A   Clear
6:53 PM 87.1 °F 94.5 °F 73.0 °F 63% 29.85 in 10.0 mi SSE 5.8 mph - N/A   Clear
7:53 PM 82.9 °F 90.2 °F 75.0 °F 77% 29.86 in 10.0 mi Calm Calm - N/A   Clear
8:53 PM 81.0 °F 86.7 °F 75.0 °F 82% 29.88 in 10.0 mi South 4.6 mph - N/A   Partly Cloudy
9:37 PM 82.4 °F 89.5 °F 75.2 °F 79% 29.88 in 10.0 mi South 6.9 mph - N/A Thunderstorm Clear
9:53 PM 81.0 °F 87.3 °F 75.9 °F 85% 29.89 in 10.0 mi South 3.5 mph - N/A Thunderstorm Clear
10:23 PM 78.8 °F - 75.2 °F 89% 29.89 in 10.0 mi NE 4.6 mph - N/A Thunderstorm Clear
10:44 PM 78.8 °F - 75.2 °F 89% 29.90 in 10.0 mi NNE 5.8 mph - N/A   Clear
10:53 PM 78.1 °F - 75.9 °F 93% 29.90 in 10.0 mi North 3.5 mph - N/A   Scattered Clouds
11:02 PM 78.8 °F - 75.2 °F 89% 29.90 in 10.0 mi Calm Calm - N/A   Mostly Cloudy
11:53 PM 78.1 °F - 75.0 °F 90% 29.90 in 10.0 mi Calm Calm - N/A   Mostly Cloudy